Weather Roundup
Issued by NWS Chicago, IL

Home | Current Version | Previous Version | Graphics & Text | Print | Product List | Glossary On
Versions: 1 2 3 4 5 6 7 8 9 10 11 12 13 14 15 16 17 18 19 20 21 22 23 24 25 26 27 28 29 30 31 32 33 34 35 36 37 38 39 40 41 42 43 44 45 46 47 48 49 50
000
NZUS59 KLOT 190709
HRRLOT

CHICAGO AREA WEATHER ROUNDUP
NATIONAL WEATHER SERVICE CHICAGO/ROMEOVILLE IL
200 AM CDT SAT AUG 19 2017

NOTE: "FAIR" INDICATES FEW OR NO CLOUDS BELOW 12,000 FEET WITH NO
SIGNIFICANT WEATHER AND/OR OBSTRUCTIONS TO VISIBILITY.

* THESE STATIONS ARE NOT UNDER NWS QUALITY CONTROL. THEY ALSO MAY NOT
  REPORT WEATHER SUCH AS PRECIPITATION OR FOG.

ILZ005-006-012>014-019>023-190800-
NORTHEAST ILLINOIS

CITY           SKY/WX    TMP DP  RH WIND       PRES   REMARKS
OHARE          PTCLDY    69  59  70 NW9       29.89S
MIDWAY         MOCLDY    72  60  66 NW10      29.89R
AURORA         CLOUDY    63  61  93 NW5       29.92R
LANSING*       CLOUDY    72  58  62 NW5       29.90R
JOLIET*        CLOUDY    71  62  72 N3        29.90S
WAUKEGAN       CLEAR     64  60  87 NW3       29.90R
DUPAGE AIRPORT PTCLDY    65  61  87 NW7       29.90S
WHEELING       PTCLDY    65  62  90 NW5       29.91S
MORRIS*        CLOUDY    66  64  93 CALM      29.90S
LEWIS AIRPORT* MOCLDY    67  59  75 N6        29.90S
NORTHERLY ISL    N/A     71  59  65 NW9         N/A
$$

WIZ051-052-058>065-066-070>072-190800-
SOUTHEAST WISCONSIN

CITY           SKY/WX    TMP DP  RH WIND       PRES   REMARKS
MILWAUKEE      PTCLDY    68  62  81 NW10      29.90S
KENOSHA*       CLEAR     63  59  87 NW6       29.90F
RACINE*        CLEAR     63  60  90 W6        29.91S
WAUKESHA       MOCLDY    61  59  94 W6        29.92F
WEST BEND      CLOUDY    63  61  94 CALM      29.90F
$$

INZ001>003-010>013-019-020-190800-
NORTHWEST INDIANA

CITY           SKY/WX    TMP DP  RH WIND       PRES   REMARKS
GARY*          CLOUDY    72  60  64 N8        29.90R
MICHIGAN CITY* NOT AVBL
RENSSELAER*    NOT AVBL
VALPARAISO     LGT RAIN  69  66  90 SW5       29.91R FOG
$$

LMZ740>746-190800-
SOUTHERN LAKE MICHIGAN

STATION/POSITION TIME  SKY/WX   TEMP WIND        PRES    VSBY
                                AIR  DIR/SP/G
                 (UTC)          (F)  (DEG/KT/KT) (MB)    (MI)
HARRISON CRIB    0640            72  320/ 16/ 18   N/A
BURNHAM HARBOR   NOT AVBL
CALUMET HARBOR   0648                330/  7/ 10 1011.7R
BURNS HARBOR     0640            73  340/ 14/ 16 1012.2S
MICHIGAN CITY    0640            72  320/ 18/ 18   N/A
$$

ABBREVIATIONS USED IN REMARKS
   TC - TEMPERATURE IN CELSIUS
  WCI - WIND CHILL INDEX
   HX - HEAT INDEX
  VSB - VISIBILITY
$$



USA.gov is the U.S. government's official web portal to all federal, state and local government web resources and services.